Regional Weather Roundup
Issued by NWS

Home | Current Version | Previous Version | Graphics & Text | Print | Product List | Glossary On
Versions: 1 2 3 4 5 6 7 8 9 10 11 12 13 14 15 16 17 18 19 20 21 22 23 24 25 26 27 28 29 30 31 32 33 34 35 36 37 38 39 40 41 42 43 44 45 46 47 48 49 50
000
ASUS45 KTFX 251704
RWRMT
MONTANA HOURLY WEATHER ROUNDUP
NATIONAL WEATHER SERVICE GREAT FALLS MT
1104 AM MDT SAT OCT 25 2014

NOTE: "FAIR" INDICATES FEW OR NO CLOUDS BELOW 12000 FEET WITH NO
SIGNIFICANT WEATHER AND/OR OBSTRUCTIONS TO VISIBILITY.

* THESE STATIONS ARE NOT UNDER NWS QUALITY CONTROL. THEY DO NOT
   REPORT WEATHER SUCH AS PRECIPITATION OR FOG.

MTZ001>007-043-251800-
WEST OF THE DIVIDE
CITY           SKY/WX    TMP DP  RH WIND       PRES   REMARKS
KALISPELL      CLOUDY    46  39  77 NE7       29.84F
MISSOULA       CLOUDY    46  43  89 SE7       29.89F
BUTTE          PTCLDY    45  36  71 CALM      29.97F
MULLAN PASS    FOG       36  36 100 S14       29.81F VSB M1/4 WCI  27
* ESSEX        N/A       41  35  79 SE9G17     N/A
* LINCOLN      N/A       32  31  96 E2         N/A
* LOOKOUT PASS N/A       40  40 100 S14G21     N/A   WCI  32
* POLSON       N/A       44  44 100 S2         N/A
* RONAN APT    CLOUDY    43  41  93 N/A        N/A
* SEELEY LAKE  N/A       39  38  96 N/A        N/A
* THOMP F APT  CLOUDY    56  26  32 SE7G15     N/A
$$

MTZ008-052>055-251800-
SOUTHWEST MONTANA
CITY           SKY/WX    TMP DP  RH WIND       PRES   REMARKS
BOZEMAN        FOG       36  36 100 CALM      29.97F VSB M1/4
W YELLOWSTONE  SUNNY     43  28  56 CALM      30.13F
* THREE FORKS  SUNNY     37  19  48 N/A        N/A
* BOULDER HILL N/A       40  32  73 S12        N/A   WCI  33
* MONIDA PASS  N/A       52  26  36 SE19G24    N/A
* RAYNOLDS PAS N/A       53  33  47 S18        N/A
* WHITEHALL    N/A       40  40 100 W3         N/A
* WISE RIVER   N/A       34  33  96 W3         N/A
$$

MTZ009>010-012-014-046-048-049-054-251800-
EAST SLOPES AND CENTRAL MONTANA
CITY           SKY/WX    TMP DP  RH WIND       PRES   REMARKS
CUT BANK       CLOUDY    45  34  65 SE12      29.90F
GREAT FALLS    SUNNY     48  43  83 CALM      29.90F
HELENA         PTSUNNY   43  37  79 NW3       29.95F
MALMSTROM AFB  SUNNY     45  41  86 VRB2      29.91F
* CONRAD       PTCLDY    43  37  79 N/A        N/A
* DEARBORN     N/A       42  41  96 S1         N/A
* EAST GLACIER N/A       41  34  76 NW2        N/A
* MONARCH      N/A       57  29  34 N/A        N/A
* PENDROY      N/A       44  37  76 SE6        N/A
* ROGERS PASS  N/A       50  36  59 SE3G9      N/A
* SAINT MARY   N/A       40  38  93 SW2        N/A
* SWEET GRASS  N/A       45  28  51 S11        N/A
$$

MTZ011-013-016-021-035-040-045-047-050-051-251800-
NORTH CENTRAL MONTANA
CITY           SKY/WX    TMP DP  RH WIND       PRES   REMARKS
HAVRE          PTCLDY    52  34  50 NE16      29.92F
LEWISTOWN      SUNNY     57  43  60 SE6       29.94F
* CHESTER      N/A       47  30  52 E7G12      N/A
* DENTON       N/A       55  39  55 E11        N/A
* GEYSER       N/A       49  39  69 NE3        N/A
* JUDITH GAP   N/A       50  38  64 S14        N/A
* LOMA         N/A       52  34  50 E17        N/A
$$

MTZ017>020-022>027-061-062-251800-
NORTHEAST MONTANA
CITY           SKY/WX    TMP DP  RH WIND       PRES   REMARKS
GLASGOW        SUNNY     55  34  45 E12       30.04F
GLENDIVE       SUNNY     54  32  43 SE7       30.10F
JORDAN         SUNNY     57  36  46 SE9       30.02F
SIDNEY         SUNNY     52  34  50 E3        30.12F
* BEAVER HILL  N/A       58  28  32 SE15G20    N/A
* CIRCLE       N/A       56  37  49 SE7G12     N/A
* LINDSAY DVD  N/A       55  34  45 E11        N/A
* NAVAJO       N/A       45  30  56 E2         N/A
$$

MTZ028>042-056>058-251800-
SOUTHCENTRAL AND SOUTHEAST MONTANA
CITY           SKY/WX    TMP DP  RH WIND       PRES   REMARKS
BAKER          SUNNY     57  32  39 SE16G24   30.09F
BILLINGS       SUNNY     46  34  63 SW5       30.00F
LIVINGSTON     SUNNY     45  37  74 CALM      30.00F
MILES CITY     SUNNY     55  34  45 SE10      30.03F
* LAUREL APT   SUNNY     46  30  54 N/A        N/A
* ROUNDUP APT  SUNNY     45  36  71 N/A        N/A
* ALZADA       N/A       56  32  40 E9         N/A
* HYSHAM       N/A       57  33  40 S4         N/A
* LAME DEER    N/A       54  34  47 SE11       N/A
* REED POINT   N/A       39  35  86 W6         N/A   WCI  35
* ROSCOE HILL  N/A       54  35  49 SE1        N/A
$$

REGIONAL REPORTS...DAKOTAS
CITY           SKY/WX    TMP DP  RH WIND       PRES   REMARKS
WILLISTON      CLOUDY    52  32  47 S8        30.11F
DICKINSON      SUNNY     55  30  39 E8        30.11F
BEACH          N/A       55  28  35 SE14      30.11F
CROSBY         SUNNY     48  32  54 S10       30.12R
TIOGA          CLOUDY    50  28  43 S8        30.14F
BISMARCK       SUNNY     57  34  42 CALM      30.16F
GRAND FORKS    SUNNY     55  28  35 NW18G24   30.08S
FARGO          SUNNY     55  30  39 NW14      30.11S
BUFFALO SD     SUNNY     59  34  39 SE9       30.05F
RAPID CITY     SUNNY     59  32  36 S18G25    30.14F
$$

REGIONAL REPORTS...WYOMING/IDAHO/WASHINGTON
CITY           SKY/WX    TMP DP  RH WIND       PRES   REMARKS
GILLETTE       SUNNY     57  34  42 S23       30.09F
SHERIDAN       SUNNY     50  34  54 CALM      30.02F
CODY           SUNNY     63  28  27 S8        30.05F
YELLOWSTONE LA SUNNY     52  28  40 CALM      30.20F
SALMON         CLOUDY    45  39  80 S3        29.97F
MULLAN PASS    FOG       36  36 100 S14       29.81S VSB M1/4 WCI  27
SAND POINT     CLOUDY    46  39  77 NE16G21   29.74F
SPOKANE        CLOUDY    48  41  77 NE12      29.66F

$$




USA.gov is the U.S. government's official web portal to all federal, state and local government web resources and services.